Vorticity
5 4 5 6 7 9 8 6 7 8 8 7 6 6 4 4 8 6 1 -1 -1 1 4 7 11 10 9 8 7 9 10 8 6 2 4 8 8 8 8 7 8 7
6 6 6 6 6 8 9 8 7 8 9 8 6 6 5 6 8 7 4 2 -1 0 2 5 9 10 10 8 6 9 9 8 7 3 4 9 9 8 9 8 9 9
6 7 7 7 6 6 8 8 8 7 8 9 8 6 6 7 8 7 7 5 2 0 0 2 7 9 11 10 7 8 10 9 8 3 4 9 9 8 9 10 10 11
6 6 7 7 6 5 6 8 8 8 8 9 9 7 6 7 7 6 6 6 4 2 -0 0 4 7 10 11 8 7 9 10 8 4 3 8 8 6 8 8 9 9
5 5 5 6 5 5 5 7 8 8 8 8 8 8 6 6 7 6 6 6 6 5 1 -1 2 6 9 10 9 8 8 10 9 5 3 7 7 5 5 6 7 8
6 6 6 6 6 6 6 6 6 6 7 8 8 8 8 7 6 6 5 4 5 6 4 0 1 4 7 9 9 8 8 9 9 6 3 5 7 6 4 4 4 4
8 9 8 8 9 9 9 8 7 7 6 6 6 7 8 8 7 6 4 3 5 7 6 3 1 2 4 8 10 8 8 9 9 6 3 4 7 6 4 3 2 2
9 10 10 10 10 10 10 10 9 9 7 6 6 5 6 7 7 7 5 3 4 6 7 5 3 2 2 7 10 9 8 9 9 6 3 2 5 5 3 1 1 3
9 9 10 11 12 12 12 12 12 11 11 10 10 7 6 6 7 6 5 3 3 5 6 6 6 4 2 4 9 9 7 8 9 7 3 2 4 4 3 1 1 3
8 8 9 10 11 12 12 12 12 12 12 12 12 12 10 8 6 6 4 4 4 5 6 7 7 6 3 3 7 8 7 8 9 8 4 2 3 3 1 1 0 2
8 7 8 9 10 11 12 12 14 15 15 15 15 16 16 13 10 8 7 6 5 5 6 7 8 7 4 4 5 7 7 7 8 9 5 2 2 2 2 2 1 2
8 7 7 8 10 12 13 15 17 19 19 18 18 19 19 18 16 14 12 10 8 7 8 8 9 8 6 4 4 6 7 6 8 9 7 3 1 1 1 1 1 2
8 7 5 7 10 10 10 14 18 20 20 20 20 21 21 21 22 22 22 19 17 16 15 14 12 10 8 6 5 6 7 7 7 8 8 5 1 -0 0 1 1 1
7 6 4 6 9 7 7 10 14 16 18 20 22 24 24 21 19 19 19 19 20 20 19 18 16 15 13 11 9 8 7 7 6 7 8 7 3 0 -1 -1 1 1
7 4 3 5 7 7 6 6 6 7 9 11 14 16 18 18 17 16 14 13 12 13 15 17 18 17 16 13 10 9 8 7 7 7 7 7 5 3 1 -1 1 2
5 3 4 6 8 8 5 4 3 3 4 5 6 7 6 8 13 16 17 16 12 9 8 10 13 17 18 16 11 9 10 9 7 6 6 7 6 4 3 0 -0 1
4 4 6 7 8 8 6 5 3 1 1 1 2 3 2 3 7 8 10 14 16 15 12 8 7 9 14 17 16 13 13 12 10 7 5 5 7 7 5 2 -0 0
6 6 6 5 6 8 9 7 4 1 1 0 0 1 -0 2 4 2 1 5 9 13 16 17 14 9 6 9 12 14 15 13 11 9 5 4 7 9 7 3 0 -1
6 5 4 4 6 8 8 8 5 4 3 3 2 -1 -2 1 4 2 1 2 3 4 7 12 18 19 13 8 5 7 11 13 12 9 6 5 7 10 9 5 2 2
2 1 3 7 10 8 6 6 6 5 4 4 2 -1 -1 1 -0 -1 0 1 2 3 3 2 6 13 18 18 12 7 5 7 9 9 7 6 6 9 10 6 4 4
3 5 6 7 8 6 5 5 4 3 2 3 2 1 1 -1 -4 -2 2 2 1 1 3 2 -1 0 6 11 15 16 12 7 5 7 7 7 8 10 10 8 6 6
6 7 7 5 3 3 5 4 4 5 6 7 5 3 2 0 -1 -2 -3 -3 -1 -1 -2 -1 -1 -3 -3 -1 4 10 14 13 11 10 8 7 8 10 12 10 6 6
7 9 7 3 0 1 4 5 6 7 5 5 6 6 6 7 7 4 1 -1 0 1 1 -0 -1 -1 -3 -4 -2 -1 2 7 11 12 13 10 9 9 11 12 9 7
11 13 8 2 1 4 5 4 4 3 1 3 5 5 6 8 7 6 7 6 2 1 3 5 5 7 6 3 1 -2 -2 1 3 5 7 9 11 11 11 11 10 9
15 17 12 8 8 11 11 7 1 -2 -0 4 4 3 6 7 5 4 5 8 9 6 4 3 5 10 15 13 9 4 1 1 1 -0 1 3 5 7 11 13 12 10
14 11 4 6 11 11 13 14 11 6 6 7 1 -0 3 3 0 1 2 5 10 8 5 5 6 8 11 14 18 19 17 11 3 -3 -2 1 2 1 3 8 11 11
Height
5920 5921 5922 5923 5924 5925 5926 5927 5928 5929 5930 5931 5932 5933 5933 5934 5936 5936 5937 5937 5937 5937 5937 5937 5936 5936 5936 5936 5937 5937 5937 5937 5937 5936 5936 5935 5934 5933 5932 5931 5929 5928
5919 5920 5921 5922 5922 5923 5924 5925 5926 5927 5928 5929 5930 5931 5932 5933 5934 5935 5935 5936 5936 5936 5936 5935 5935 5935 5935 5935 5936 5936 5936 5936 5936 5936 5935 5934 5933 5932 5931 5930 5929 5928
5917 5918 5919 5920 5921 5921 5922 5923 5924 5925 5926 5927 5928 5929 5930 5931 5932 5933 5934 5934 5935 5935 5935 5934 5934 5934 5934 5934 5934 5935 5935 5935 5936 5935 5935 5934 5933 5932 5931 5930 5929 5928
5916 5917 5918 5918 5919 5919 5920 5921 5922 5923 5924 5925 5926 5927 5928 5930 5930 5931 5932 5932 5933 5933 5933 5933 5933 5933 5933 5933 5933 5934 5934 5934 5935 5934 5934 5933 5932 5931 5930 5929 5929 5928
5914 5915 5916 5917 5917 5918 5919 5920 5920 5921 5922 5923 5924 5926 5927 5928 5929 5929 5930 5931 5931 5932 5932 5932 5932 5931 5931 5931 5932 5932 5932 5933 5933 5933 5933 5932 5932 5931 5930 5929 5928 5928
5913 5913 5914 5915 5916 5916 5917 5918 5919 5919 5920 5921 5922 5924 5925 5926 5927 5928 5928 5929 5929 5930 5930 5930 5930 5930 5930 5930 5930 5931 5931 5931 5931 5931 5931 5931 5931 5930 5929 5929 5928 5927
5911 5911 5912 5912 5913 5914 5915 5916 5916 5917 5918 5919 5920 5922 5923 5924 5925 5926 5926 5927 5927 5928 5928 5928 5928 5928 5928 5928 5929 5929 5929 5929 5929 5930 5929 5929 5929 5929 5928 5928 5927 5927
5908 5909 5910 5910 5911 5912 5912 5913 5914 5915 5915 5917 5918 5919 5920 5922 5923 5923 5924 5925 5925 5926 5926 5926 5926 5926 5926 5927 5927 5927 5927 5927 5928 5928 5927 5927 5927 5927 5927 5927 5926 5926
5906 5908 5908 5909 5909 5910 5910 5911 5911 5912 5913 5914 5915 5916 5918 5919 5920 5921 5922 5922 5923 5923 5924 5924 5924 5924 5924 5924 5925 5925 5925 5925 5925 5925 5925 5925 5925 5925 5925 5925 5925 5924
5905 5906 5906 5907 5908 5908 5908 5908 5909 5909 5910 5911 5912 5913 5915 5916 5917 5918 5919 5920 5920 5921 5921 5921 5921 5922 5922 5922 5922 5922 5923 5923 5923 5923 5923 5923 5923 5924 5924 5924 5924 5923
5902 5903 5904 5905 5905 5906 5906 5906 5907 5907 5908 5909 5910 5911 5912 5913 5914 5915 5916 5917 5917 5917 5918 5918 5918 5919 5919 5920 5920 5920 5920 5921 5921 5921 5921 5921 5921 5921 5922 5922 5922 5921
5900 5901 5902 5902 5903 5903 5904 5904 5905 5905 5906 5906 5907 5908 5909 5910 5911 5912 5913 5914 5914 5914 5914 5915 5915 5915 5916 5917 5917 5917 5918 5918 5919 5919 5919 5919 5919 5919 5920 5920 5920 5919
5899 5900 5900 5900 5901 5901 5902 5903 5903 5903 5904 5904 5904 5905 5906 5907 5908 5909 5909 5910 5910 5910 5911 5911 5911 5912 5913 5913 5914 5914 5915 5915 5916 5916 5916 5916 5916 5917 5917 5918 5918 5917
5897 5897 5897 5898 5899 5900 5901 5901 5902 5902 5902 5902 5903 5903 5904 5904 5905 5906 5906 5906 5907 5907 5907 5908 5908 5909 5909 5910 5911 5912 5912 5913 5913 5914 5914 5914 5914 5914 5915 5915 5915 5915
5894 5894 5895 5896 5897 5898 5899 5900 5900 5901 5901 5901 5901 5902 5902 5903 5903 5904 5904 5904 5905 5905 5905 5905 5906 5906 5907 5907 5908 5909 5910 5910 5910 5911 5911 5911 5911 5911 5912 5912 5913 5912
5891 5892 5893 5894 5895 5896 5897 5898 5898 5899 5899 5900 5900 5901 5901 5901 5902 5902 5902 5903 5903 5903 5903 5903 5903 5904 5904 5905 5905 5906 5906 5907 5907 5907 5908 5908 5908 5908 5909 5909 5910 5909
5888 5889 5891 5892 5893 5894 5895 5896 5896 5897 5898 5898 5899 5899 5900 5900 5900 5901 5901 5901 5901 5901 5901 5901 5902 5902 5902 5902 5902 5902 5903 5903 5903 5904 5904 5904 5904 5905 5905 5906 5906 5906
5886 5887 5888 5889 5890 5891 5892 5893 5894 5895 5896 5896 5897 5897 5898 5898 5899 5899 5899 5899 5900 5900 5900 5900 5900 5900 5900 5899 5899 5899 5899 5899 5900 5900 5900 5900 5900 5901 5902 5902 5902 5902
5883 5884 5886 5887 5888 5889 5889 5890 5891 5892 5893 5894 5894 5895 5895 5896 5896 5897 5897 5897 5898 5898 5898 5898 5898 5898 5898 5897 5897 5896 5896 5896 5895 5896 5896 5896 5896 5897 5898 5898 5898 5898
5880 5881 5883 5884 5885 5885 5886 5886 5887 5889 5890 5891 5891 5891 5892 5893 5894 5894 5895 5895 5895 5896 5896 5896 5896 5896 5895 5895 5894 5894 5893 5892 5892 5892 5892 5892 5892 5893 5894 5894 5894 5894
5877 5879 5880 5880 5881 5882 5883 5884 5885 5885 5886 5887 5888 5888 5889 5889 5890 5890 5891 5892 5892 5892 5893 5893 5893 5893 5893 5893 5892 5891 5890 5889 5888 5888 5889 5889 5889 5890 5891 5891 5891 5891
5875 5876 5876 5877 5878 5879 5880 5881 5882 5883 5883 5884 5884 5885 5886 5886 5886 5887 5888 5888 5888 5889 5889 5890 5890 5890 5891 5890 5890 5889 5888 5886 5886 5885 5886 5887 5887 5887 5888 5888 5887 5887
5872 5873 5873 5874 5875 5876 5877 5878 5879 5880 5880 5880 5881 5881 5882 5883 5883 5883 5884 5884 5884 5884 5885 5886 5887 5887 5887 5887 5886 5885 5884 5883 5882 5882 5882 5882 5883 5884 5884 5884 5883 5884
5869 5870 5870 5871 5872 5873 5874 5875 5876 5876 5877 5877 5877 5877 5878 5878 5879 5879 5879 5879 5880 5880 5881 5882 5882 5882 5882 5882 5882 5881 5880 5879 5878 5877 5877 5878 5879 5879 5880 5879 5879 5879
5866 5867 5868 5869 5870 5870 5871 5871 5872 5873 5873 5872 5873 5873 5874 5874 5875 5875 5876 5876 5876 5876 5876 5877 5877 5877 5877 5878 5877 5876 5875 5874 5872 5871 5872 5873 5874 5874 5875 5874 5874 5874
5863 5864 5865 5866 5867 5867 5867 5867 5868 5869 5868 5868 5869 5869 5870 5870 5871 5872 5872 5873 5872 5872 5871 5871 5872 5872 5872 5873 5873 5871 5870 5868 5867 5866 5867 5868 5868 5868 5869 5869 5868 5868